[[{"header":{"parameterUnit":"m.s-1","parameterCategory":1,"la1":30.2991,"la2":30.254,"lo1":-89.0895,"lo2":-89.0444,"dy":0.0017,"dx":0.0017,"nx":28,"ny":28,"refTime":"2024-10-08T03:00:00:Z","depth":0,"parameterNumber":2,"parameterNumberName":"U-component_of_WINDS"},"data":[0,0,0,0,0,0,0,0,0,0,0,0,0,0,0,0,0,0,0,0,0,0,0,0,0,0,0,0,0,0,0,0,0,0,0,0,0,0,0,0,0,0,0,0,0,0,0,0,0,0,0,0,0,0,0,0,0,0,-0.3576,-0.3576,0,-0.3598,-0.3598,-0.3598,-0.3583,-0.3583,-0.3582,-0.3581,-0.3605,-0.3606,-0.3607,0,0,0,0,0,0,0,0,0,0,0,0,0,-0.3521,-0.3522,-0.3576,-0.3576,-0.3576,-0.3598,-0.3598,-0.3599,-0.3584,-0.3583,-0.3582,-0.3581,-0.3604,-0.3606,-0.3607,0,0,0,0,0,0,0,0,0,0,0,0,0,-0.3544,-0.3522,-0.3576,-0.3572,-0.3571,-0.3598,-0.3598,-0.3599,-0.3584,-0.3583,-0.3582,-0.3581,-0.3604,-0.3606,-0.3608,-0.364,0,0,-0.3613,-0.3614,0,0,0,0,0,0,0,0,-0.3543,-0.3546,-0.3572,-0.3572,-0.3572,-0.3587,-0.3587,-0.3612,-0.3584,-0.3579,-0.3581,-0.358,-0.36,-0.3602,-0.3608,-0.3641,-0.3642,-0.3614,-0.3615,-0.3615,-0.3616,0,0,0,0,0,0,0,-0.3541,-0.3545,-0.3585,-0.3572,-0.3572,-0.3569,-0.3571,-0.3592,-0.3595,-0.3579,-0.3578,-0.3581,-0.3599,-0.3607,-0.3609,-0.3642,-0.3613,-0.3615,-0.3616,-0.3617,-0.3702,-0.3703,0,0,0,0,0,0,-0.354,-0.3544,-0.3584,-0.3585,-0.3554,-0.357,-0.3573,-0.3583,-0.3595,-0.3595,-0.3582,-0.358,-0.3604,-0.3607,-0.3609,-0.3648,-0.3615,-0.3617,-0.3618,-0.3701,-0.3702,-0.3703,0,0,0,0,0,0,-0.3539,-0.3544,-0.3583,-0.3564,-0.3569,-0.3572,-0.3584,-0.3584,-0.3591,-0.3597,-0.3597,-0.3589,-0.3603,-0.3607,-0.3632,-0.3648,-0.3618,-0.362,-0.3699,-0.3701,-0.3703,-0.3725,0,0,0,0,0,0,-0.3537,-0.3543,-0.3556,-0.3565,-0.357,-0.3605,-0.3585,-0.3585,-0.3594,-0.3592,-0.3603,-0.3604,-0.3603,-0.3629,-0.3634,-0.3651,-0.3621,-0.3698,-0.37,-0.3702,-0.3723,-0.3727,-0.3731,0,0,0,0,0,-0.3535,-0.3561,-0.3556,-0.3561,-0.3586,-0.3606,-0.361,-0.3607,-0.3596,-0.3608,-0.3611,-0.3603,-0.3646,-0.3632,-0.3637,-0.3655,-0.3697,-0.3699,-0.3702,-0.3721,-0.3726,-0.3731,0,0,0,0,0,0,-0.3555,-0.3562,-0.3557,-0.3587,-0.3596,-0.3604,-0.362,-0.3613,-0.3626,-0.3624,-0.3621,-0.3623,-0.365,-0.3655,-0.3639,-0.3686,-0.3669,-0.3673,-0.3682,-0.3687,-0.3691,-0.369,-0.3623,0,0,0,0,0,-0.3562,-0.3578,-0.3584,-0.361,-0.3615,-0.3616,-0.3625,-0.3623,-0.3632,-0.3636,-0.3642,-0.3651,-0.3667,-0.3677,-0.3692,-0.3723,-0.3725,-0.3737,-0.3741,-0.3745,-0.3748,-0.3765,-0.377,-0.3711,-0.3711,-0.3711,0,0,-0.3578,-0.3585,-0.3595,-0.3614,-0.3621,-0.3638,-0.362,-0.3639,-0.3651,-0.3639,-0.3664,-0.3668,-0.3678,-0.3707,-0.3719,-0.3711,-0.3765,-0.3748,-0.375,-0.3752,-0.3768,-0.3774,-0.3779,-0.3713,-0.3713,-0.3713,0,0,-0.3616,-0.3623,-0.3645,-0.3652,-0.3662,-0.3663,-0.3668,-0.3677,-0.3679,-0.3703,-0.3694,-0.3709,-0.3736,-0.3744,-0.3751,-0.3791,-0.3784,-0.3796,-0.3818,-0.3834,-0.3839,-0.3843,-0.3857,-0.3862,-0.3799,-0.3799,-0.3799,0,-0.3635,-0.366,-0.3657,-0.3676,-0.3685,-0.3674,-0.3696,-0.3703,-0.3718,-0.3724,-0.3715,-0.3747,-0.3754,-0.3784,-0.3794,-0.38,-0.3806,-0.3795,-0.3838,-0.3842,-0.3846,-0.386,-0.3865,-0.3801,-0.38,-0.38,-0.38,0,-0.3683,-0.3701,-0.3717,-0.3731,-0.3741,-0.3762,-0.3761,-0.3772,-0.3768,-0.377,-0.3795,-0.3802,-0.3817,-0.3824,-0.3821,-0.3854,-0.3848,-0.3838,-0.3822,-0.3853,-0.3866,-0.3871,-0.3803,-0.3802,-0.3802,-0.3801,0,0,-0.3735,-0.3746,-0.3752,-0.3759,-0.3769,-0.3782,-0.3802,-0.3817,-0.3826,-0.3837,-0.3853,-0.3876,-0.3866,-0.3875,-0.3872,-0.3887,-0.3918,-0.3875,-0.3875,-0.3883,-0.3955,-0.3962,-0.3969,-0.3913,-0.3914,-0.3915,-0.3954,0,-0.3774,-0.3809,-0.3806,-0.3839,-0.3855,-0.3844,-0.3862,-0.387,-0.3872,-0.3885,-0.3887,-0.3903,-0.389,-0.3895,-0.3908,-0.3911,-0.3932,-0.3908,-0.3929,-0.393,-0.3927,-0.3975,-0.3984,-0.402,-0.3959,-0.396,-0.396,0,-0.3825,-0.3836,-0.3871,-0.3878,-0.3885,-0.39,-0.3914,-0.3927,-0.3936,-0.3936,-0.3945,-0.3939,-0.3959,-0.3941,-0.3969,-0.3953,-0.3961,-0.3963,-0.3965,-0.3967,-0.3947,-0.398,-0.4032,-0.4038,-0.3968,-0.3967,-0.3967,0,-0.386,-0.3884,-0.3908,-0.3913,-0.3922,-0.3933,-0.3938,-0.3945,-0.3954,-0.3966,-0.3971,-0.3985,-0.3993,-0.4003,-0.4002,-0.3989,-0.403,-0.4012,-0.4031,-0.4031,-0.4041,-0.404,-0.4096,-0.4045,-0.4045,-0.4044,-0.4044,0,-0.3904,-0.3926,-0.3924,-0.3938,-0.3962,-0.3958,-0.3981,-0.3984,-0.3991,-0.4006,-0.3998,-0.4012,-0.4008,-0.4023,-0.4021,-0.4044,-0.4048,-0.4049,-0.4048,-0.405,-0.405,-0.4056,-0.4053,-0.4046,-0.4046,-0.4045,-0.4045,0,-0.3948,-0.3947,-0.3972,-0.3979,-0.3981,-0.3998,-0.4003,-0.4017,-0.4017,-0.4036,-0.4041,-0.4042,-0.4058,-0.4057,-0.4075,-0.4074,-0.4103,-0.4099,-0.41,-0.4099,-0.4118,-0.4117,-0.418,-0.4188,-0.4132,-0.4132,-0.4132,0,-0.3977,-0.3993,-0.4001,-0.401,-0.4015,-0.403,-0.4039,-0.4035,-0.4045,-0.4056,-0.4068,-0.4083,-0.4095,-0.4121,-0.4124,-0.4138,-0.4135,-0.4156,-0.4137,-0.4138,-0.4135,-0.4135,-0.4136,-0.416,-0.4161,-0.4161,-0.4161,0,-0.4028,-0.4027,-0.404,-0.4053,-0.4064,-0.4074,-0.4083,-0.4091,-0.4088,-0.4099,-0.4115,-0.4124,-0.4143,-0.4158,-0.4171,-0.4175,-0.4168,-0.4167,-0.4172,-0.4175,-0.4175,-0.4175,-0.4111,-0.4166,-0.4166,-0.4165,-0.4165,-0.4165,-0.4066,-0.408,-0.4087,-0.4102,-0.4108,-0.4117,-0.413,-0.4132,-0.4145,-0.416,-0.4156,-0.4174,-0.4182,-0.4199,-0.4204,-0.4218,-0.4211,-0.4218,-0.422,-0.4222,-0.4225,-0.4172,-0.422,-0.422,-0.422,-0.422,-0.422,0,-0.4117,-0.4121,-0.4135,-0.4147,-0.4159,-0.415,-0.416,-0.417,-0.4186,-0.4194,-0.4205,-0.4224,-0.4238,-0.4241,-0.4255,-0.4266,-0.4263,-0.427,-0.4269,-0.427,-0.423,-0.4225,-0.4272,-0.4272,-0.4272,-0.4272,-0.4272,-0.4272,-0.4145,-0.4168,-0.4168,-0.4194,-0.4197,-0.4215,-0.4221,-0.4229,-0.4235,-0.4256,-0.4267,-0.4269,-0.4275,-0.4289,-0.4302,-0.4302,-0.4308,-0.4316,-0.4315,-0.4278,-0.4273,-0.4268,-0.4263,-0.4317,-0.4317,-0.4354,-0.4354,-0.4355]},{"header":{"parameterUnit":"m.s-1","parameterCategory":1,"la1":30.2991,"la2":30.254,"lo1":-89.0895,"lo2":-89.0444,"dy":0.0017,"dx":0.0017,"nx":28,"ny":28,"refTime":"2024-10-08T03:00:00:Z","depth":0,"parameterNumber":3,"parameterNumberName":"V-component_of_WINDS"},"data":[0,0,0,0,0,0,0,0,0,0,0,0,0,0,0,0,0,0,0,0,0,0,0,0,0,0,0,0,0,0,0,0,0,0,0,0,0,0,0,0,0,0,0,0,0,0,0,0,0,0,0,0,0,0,0,0,0,0,-4.4246,-4.4247,0,-4.428,-4.428,-4.4281,-4.4218,-4.4216,-4.4214,-4.4212,-4.4242,-4.4245,-4.4247,0,0,0,0,0,0,0,0,0,0,0,0,0,-4.4123,-4.4126,-4.4246,-4.4247,-4.4247,-4.428,-4.428,-4.4281,-4.4219,-4.4216,-4.4214,-4.4211,-4.4241,-4.4244,-4.4248,0,0,0,0,0,0,0,0,0,0,0,0,0,-4.4169,-4.4127,-4.4246,-4.422,-4.4218,-4.428,-4.428,-4.4281,-4.4219,-4.4216,-4.4213,-4.421,-4.424,-4.4244,-4.4248,-4.4335,0,0,-4.426,-4.4262,0,0,0,0,0,0,0,0,-4.4166,-4.4173,-4.4224,-4.4222,-4.422,-4.4242,-4.4248,-4.4299,-4.422,-4.4219,-4.4212,-4.4209,-4.4244,-4.4248,-4.4261,-4.4336,-4.4338,-4.4261,-4.4263,-4.4265,-4.4266,0,0,0,0,0,0,0,-4.4163,-4.4172,-4.4259,-4.4224,-4.4222,-4.4205,-4.4208,-4.4257,-4.4248,-4.4219,-4.4214,-4.4219,-4.4243,-4.4257,-4.4261,-4.4338,-4.4261,-4.4264,-4.4267,-4.4268,-4.4486,-4.449,0,0,0,0,0,0,-4.4164,-4.4169,-4.4258,-4.426,-4.4185,-4.421,-4.4213,-4.4238,-4.4248,-4.4246,-4.4222,-4.4216,-4.4251,-4.4256,-4.4262,-4.4364,-4.4265,-4.4269,-4.4271,-4.4483,-4.4487,-4.4491,0,0,0,0,0,0,-4.4162,-4.4173,-4.4257,-4.4214,-4.4223,-4.4215,-4.4243,-4.424,-4.4254,-4.425,-4.4248,-4.4239,-4.4249,-4.4256,-4.4317,-4.4364,-4.4271,-4.4274,-4.4479,-4.4484,-4.4489,-4.457,0,0,0,0,0,0,-4.4158,-4.4172,-4.4206,-4.4215,-4.4226,-4.4314,-4.4246,-4.4243,-4.4262,-4.4255,-4.4265,-4.4264,-4.4247,-4.4312,-4.4322,-4.4368,-4.4278,-4.4475,-4.4481,-4.4487,-4.4563,-4.4577,-4.4589,0,0,0,0,0,-4.4154,-4.4226,-4.4208,-4.4219,-4.4268,-4.4317,-4.4322,-4.4304,-4.4266,-4.43,-4.4297,-4.4263,-4.4358,-4.4319,-4.4329,-4.4378,-4.4472,-4.448,-4.4487,-4.4557,-4.4574,-4.4588,0,0,0,0,0,0,-4.4221,-4.4227,-4.4207,-4.4284,-4.4301,-4.4306,-4.4348,-4.4322,-4.4348,-4.434,-4.4314,-4.4317,-4.4384,-4.4386,-4.4343,-4.4462,-4.4408,-4.4418,-4.4458,-4.4474,-4.4487,-4.4485,-4.4281,0,0,0,0,0,-4.4245,-4.4286,-4.4288,-4.4356,-4.4365,-4.4356,-4.4376,-4.436,-4.4375,-4.4381,-4.4382,-4.4397,-4.443,-4.4452,-4.4482,-4.4563,-4.4564,-4.4601,-4.4614,-4.4625,-4.4634,-4.4677,-4.4693,-4.4515,-4.4515,-4.4515,0,0,-4.4295,-4.4303,-4.433,-4.437,-4.438,-4.4421,-4.4361,-4.4407,-4.4437,-4.4387,-4.4446,-4.4448,-4.4462,-4.4534,-4.4566,-4.4538,-4.4683,-4.4635,-4.4643,-4.4646,-4.4686,-4.4703,-4.4718,-4.4521,-4.452,-4.4519,0,0,-4.4406,-4.4417,-4.4475,-4.4488,-4.4505,-4.4498,-4.4512,-4.4522,-4.4522,-4.4581,-4.4544,-4.4578,-4.4636,-4.4648,-4.4661,-4.4778,-4.4748,-4.4788,-4.4856,-4.4898,-4.4912,-4.4924,-4.4966,-4.4981,-4.4797,-4.4797,-4.4797,0,-4.4465,-4.4527,-4.4508,-4.4557,-4.4575,-4.4534,-4.4592,-4.4604,-4.463,-4.4643,-4.4612,-4.4684,-4.4691,-4.4765,-4.4793,-4.4806,-4.482,-4.4787,-4.4912,-4.4924,-4.4935,-4.4975,-4.499,-4.4802,-4.4802,-4.4801,-4.4801,0,-4.4599,-4.4642,-4.4687,-4.4715,-4.4738,-4.4791,-4.4778,-4.4804,-4.4786,-4.4782,-4.4842,-4.4849,-4.488,-4.4896,-4.4878,-4.4968,-4.495,-4.4917,-4.4862,-4.4957,-4.4994,-4.5009,-4.4809,-4.4807,-4.4806,-4.4805,0,0,-4.4753,-4.4771,-4.4787,-4.48,-4.4816,-4.4849,-4.4899,-4.4931,-4.4954,-4.4973,-4.5014,-4.5064,-4.5033,-4.5049,-4.5032,-4.5069,-4.5161,-4.503,-4.503,-4.5054,-4.5259,-4.5285,-4.5302,-4.5141,-4.5144,-4.5146,-4.5258,0,-4.4863,-4.4953,-4.4937,-4.5023,-4.5063,-4.5025,-4.5069,-4.5083,-4.5081,-4.5113,-4.5109,-4.5145,-4.5101,-4.511,-4.5145,-4.5142,-4.5202,-4.5134,-4.5178,-4.518,-4.5176,-4.5321,-4.5348,-4.5453,-4.5272,-4.5274,-4.5276,0,-4.5004,-4.5031,-4.5122,-4.5134,-4.5149,-4.519,-4.5218,-4.5249,-4.5264,-4.5259,-4.5278,-4.5254,-4.5303,-4.5248,-4.5315,-4.527,-4.5287,-4.5288,-4.5292,-4.5295,-4.5234,-4.5328,-4.5486,-4.5502,-4.5298,-4.5297,-4.5295,0,-4.5108,-4.5166,-4.5228,-4.524,-4.5255,-4.5284,-4.5291,-4.5303,-4.5323,-4.5347,-4.536,-4.5389,-4.5404,-4.5427,-4.5411,-4.5373,-4.548,-4.5424,-4.5477,-4.5478,-4.5501,-4.55,-4.5664,-4.5513,-4.5513,-4.5512,-4.5512,0,-4.5233,-4.529,-4.5275,-4.5313,-4.5376,-4.5356,-4.5418,-4.542,-4.5432,-4.5469,-4.5437,-4.5472,-4.5449,-4.5482,-4.547,-4.5527,-4.5534,-4.5531,-4.5527,-4.5534,-4.5534,-4.5545,-4.5537,-4.5516,-4.5516,-4.5515,-4.5514,0,-4.5358,-4.5351,-4.5416,-4.5425,-4.5429,-4.5475,-4.5481,-4.5516,-4.5512,-4.5559,-4.5569,-4.5561,-4.5598,-4.5585,-4.5624,-4.5616,-4.5689,-4.5675,-4.5684,-4.5681,-4.5734,-4.573,-4.5911,-4.5933,-4.5768,-4.5769,-4.5771,0,-4.5439,-4.5482,-4.5497,-4.552,-4.553,-4.5568,-4.5589,-4.5571,-4.5594,-4.5615,-4.5647,-4.5682,-4.5709,-4.5769,-4.5766,-4.5796,-4.5783,-4.5844,-4.5787,-4.5792,-4.5783,-4.5781,-4.5785,-4.5856,-4.5857,-4.5859,-4.586,0,-4.5582,-4.5577,-4.5609,-4.5641,-4.5668,-4.5691,-4.5712,-4.5732,-4.5715,-4.5743,-4.5781,-4.5802,-4.5843,-4.5877,-4.5904,-4.5909,-4.5882,-4.5879,-4.5892,-4.59,-4.5903,-4.5902,-4.5715,-4.5874,-4.5873,-4.5872,-4.5871,-4.5871,-4.5687,-4.5725,-4.5741,-4.5778,-4.5792,-4.5812,-4.5846,-4.5846,-4.5879,-4.5912,-4.5899,-4.5943,-4.5956,-4.599,-4.5999,-4.6033,-4.6008,-4.6028,-4.6033,-4.6039,-4.6046,-4.5898,-4.6037,-4.6037,-4.6036,-4.6036,-4.6036,0,-4.5829,-4.5838,-4.5873,-4.5904,-4.5933,-4.5907,-4.5928,-4.5954,-4.5994,-4.601,-4.6037,-4.6081,-4.6115,-4.6115,-4.6145,-4.6172,-4.616,-4.6181,-4.6178,-4.618,-4.6065,-4.6051,-4.619,-4.619,-4.619,-4.619,-4.619,-4.619,-4.5906,-4.5968,-4.5964,-4.6032,-4.604,-4.6084,-4.6099,-4.6117,-4.6129,-4.6181,-4.6209,-4.621,-4.6219,-4.625,-4.6279,-4.6278,-4.6291,-4.6316,-4.631,-4.6203,-4.6188,-4.6173,-4.6159,-4.6319,-4.6319,-4.6422,-4.6423,-4.6424]}]]